Date String (YYYY-MM-DD hh:mm:ss) UTC,Instrument flags,absolute air pressure of the measurement (hPa),sample flow rate (lpm),inlet stack bypass flow (lpm),air temperature of the measurement (°C),ambient temperature measured by the external sensor (°C),aerosol sample conditioner tube jacket temperature (°C),OPC LED temperature (°C),internal box temperature (°C),relative humidity of the measurement (%),span deviation,mass concentration of particles derived from Lorenz-Mie calculation of OPC scattering (μg/m³),mass concentration of particles derived from Lorenz-Mie calculation of OPC scattering (μg/m³),mass concentration of particles derived from Lorenz-Mie calculation of OPC scattering (μg/m³)
DateTimeUTC,F1_M11,P_M11,Q1_M11,Q2_M11,T1_M11,T2_M11,T3_M11,T4_M11,T5_M11,U1_M11,ZSPAN_M11,X0_M11,X2_M11,X1_M11
2023-08-12 01:00:00,SystemResetWarning,0831.5,4.99,000.00,028.9,027.0,000.0,037.2,030.6,30.4,0000.0,0006.48,0003.79,0003.28
2023-08-12 01:01:00,SystemResetWarning,0831.5,4.98,000.00,028.9,027.3,000.0,037.3,030.7,30.0,0000.0,0006.56,0003.82,0003.32
2023-08-12 01:02:00,SystemResetWarning,0831.5,5.00,000.00,029.0,027.5,000.0,037.3,030.8,29.7,0000.0,0006.74,0003.88,0003.35
2023-08-12 01:03:00,SystemResetWarning,0831.6,5.01,000.00,029.0,027.7,000.0,037.3,030.8,29.7,0000.0,0007.27,0003.91,0003.39
2023-08-12 01:04:00,SystemResetWarning,0831.6,5.00,000.00,029.0,027.3,000.0,037.3,030.7,29.4,0000.0,0007.90,0003.94,0003.43
2023-08-12 01:05:00,SystemResetWarning,0831.5,5.00,000.00,029.0,025.9,000.0,037.2,030.5,29.8,0000.0,0008.13,0003.97,0003.46
2023-08-12 01:06:00,SystemResetWarning,0831.5,5.01,000.00,029.0,025.6,000.0,037.1,030.3,29.9,0000.0,0008.28,0003.98,0003.50
2023-08-12 01:07:00,SystemResetWarning,0831.5,5.01,000.00,028.9,025.8,000.0,037.2,030.2,29.8,0000.0,0008.55,0004.02,0003.53
2023-08-12 01:08:00,SystemResetWarning,0831.6,5.00,000.00,028.9,026.1,000.0,037.2,030.4,30.2,0000.0,0009.00,0004.03,0003.56
2023-08-12 01:09:00,SystemResetWarning,0831.6,5.00,000.00,028.9,026.5,000.0,037.3,030.5,29.8,0000.0,0009.04,0004.06,0003.58
2023-08-12 01:10:00,SystemResetWarning,0831.6,5.01,000.00,028.9,026.9,000.0,037.3,030.6,29.7,0000.0,0009.07,0004.06,0003.60
2023-08-12 01:11:00,SystemResetWarning,0831.6,5.00,000.00,028.9,027.2,000.0,037.3,030.7,29.5,0000.0,0009.24,0004.09,0003.60
2023-08-12 01:12:00,SystemResetWarning,0831.7,5.00,000.00,029.0,027.4,000.0,037.4,030.8,29.5,0000.0,0009.28,0004.09,0003.60
2023-08-12 01:13:00,SystemResetWarning,0831.7,5.00,000.00,029.0,027.7,000.0,037.4,030.8,29.1,0000.0,0009.28,0004.08,0003.59
2023-08-12 01:14:00,SystemResetWarning,0831.7,4.99,000.00,029.1,027.4,000.0,037.4,030.8,28.9,0000.0,0008.95,0004.06,0003.57
2023-08-12 01:15:00,SystemResetWarning,0831.7,5.00,000.00,029.0,025.6,000.0,037.2,030.5,29.3,0000.0,0008.45,0004.06,0003.54
2023-08-12 01:16:00,SystemResetWarning,0831.7,5.01,000.00,028.9,024.6,000.0,037.1,030.2,29.6,0000.0,0008.36,0004.06,0003.52
2023-08-12 01:17:00,SystemResetWarning,0831.7,5.00,000.00,028.8,024.6,000.0,037.1,030.0,29.6,0000.0,0008.17,0004.03,0003.49
2023-08-12 01:18:00,SystemResetWarning,0831.6,5.01,000.00,028.7,025.0,000.0,037.1,030.0,29.6,0000.0,0008.05,0003.97,0003.45
2023-08-12 01:19:00,SystemResetWarning,0831.6,5.00,000.00,028.7,025.5,000.0,037.2,030.1,29.9,0000.0,0007.58,0003.91,0003.41
2023-08-12 01:20:00,SystemResetWarning,0831.6,5.00,000.00,028.7,026.0,000.0,037.2,030.3,29.8,0000.0,0007.43,0003.84,0003.37
2023-08-12 01:21:00,SystemResetWarning,0831.6,5.00,000.00,028.8,026.4,000.0,037.2,030.4,30.0,0000.0,0007.35,0003.82,0003.34
2023-08-12 01:22:00,SystemResetWarning,0831.6,5.00,000.00,028.8,026.7,000.0,037.2,030.5,29.8,0000.0,0007.10,0003.78,0003.32
2023-08-12 01:23:00,SystemResetWarning,0831.6,5.00,000.00,028.8,027.1,000.0,037.3,030.6,29.9,0000.0,0007.89,0003.79,0003.30
2023-08-12 01:24:00,SystemResetWarning,0831.6,4.99,000.00,028.9,027.3,000.0,037.3,030.6,29.9,0000.0,0008.45,0003.78,0003.29
2023-08-12 01:25:00,SystemResetWarning,0831.6,4.99,000.00,028.9,027.5,000.0,037.3,030.7,29.1,0000.0,0008.84,0003.77,0003.28
2023-08-12 01:26:00,SystemResetWarning,0831.5,5.00,000.00,029.0,027.7,000.0,037.3,030.8,28.9,0000.0,0009.15,0003.79,0003.28
2023-08-12 01:27:00,SystemResetWarning,0831.5,5.00,000.00,029.0,027.8,000.0,037.4,030.8,28.9,0000.0,0009.10,0003.76,0003.27
2023-08-12 01:28:00,SystemResetWarning,0831.6,5.00,000.00,029.0,026.4,000.0,037.2,030.5,29.2,0000.0,0009.86,0003.72,0003.27
2023-08-12 01:29:00,SystemResetWarning,0831.5,5.00,000.00,028.9,025.5,000.0,037.1,030.3,29.3,0000.0,0009.82,0003.75,0003.28
2023-08-12 01:30:00,SystemResetWarning,0831.5,5.01,000.00,028.9,025.5,000.0,037.1,030.2,29.5,0000.0,0009.97,0003.77,0003.28
2023-08-12 01:31:00,SystemResetWarning,0831.5,5.01,000.00,028.8,025.8,000.0,037.2,030.2,29.7,0000.0,0010.13,0003.80,0003.29
2023-08-12 01:32:00,SystemResetWarning,0831.6,4.99,000.00,028.8,026.2,000.0,037.2,030.3,29.9,0000.0,0010.21,0003.79,0003.28
2023-08-12 01:33:00,SystemResetWarning,0831.6,5.00,000.00,028.8,026.6,000.0,037.3,030.5,29.9,0000.0,0010.62,0003.78,0003.26
2023-08-12 01:34:00,SystemResetWarning,0831.6,5.01,000.00,028.9,026.9,000.0,037.3,030.6,29.9,0000.0,0010.57,0003.76,0003.26
2023-08-12 01:35:00,SystemResetWarning,0831.6,5.01,000.00,028.9,027.2,000.0,037.3,030.7,30.1,0000.0,0009.83,0003.75,0003.25
2023-08-12 01:36:00,SystemResetWarning,0831.6,5.00,000.00,029.0,027.5,000.0,037.3,030.7,29.8,0000.0,0009.30,0003.79,0003.25
2023-08-12 01:37:00,SystemResetWarning,0831.6,4.99,000.00,029.0,027.7,000.0,037.4,030.8,29.9,0000.0,0009.37,0003.79,0003.24
2023-08-12 01:38:00,SystemResetWarning,0831.6,4.99,000.00,029.1,027.8,000.0,037.4,030.9,30.0,0000.0,0009.98,0003.75,0003.23
2023-08-12 01:39:00,SystemResetWarning,0831.7,5.00,000.00,029.1,026.8,000.0,037.3,030.7,29.9,0000.0,0009.80,0003.77,0003.23
2023-08-12 01:40:00,SystemResetWarning,0831.7,4.99,000.00,029.0,025.6,000.0,037.2,030.5,30.0,0000.0,0009.47,0003.77,0003.22
2023-08-12 01:41:00,SystemResetWarning,0831.7,5.01,000.00,029.0,025.5,000.0,037.2,030.4,30.0,0000.0,0009.28,0003.75,0003.21
2023-08-12 01:42:00,SystemResetWarning,0831.7,5.02,000.00,028.9,025.8,000.0,037.2,030.3,29.9,0000.0,0009.30,0003.73,0003.20
2023-08-12 01:43:00,SystemResetWarning,0831.7,4.99,000.00,028.9,026.2,000.0,037.3,030.4,29.8,0000.0,0009.24,0003.73,0003.19
2023-08-12 01:44:00,SystemResetWarning,0831.7,4.99,000.00,028.9,026.5,000.0,037.3,030.5,29.6,0000.0,0008.93,0003.71,0003.18
2023-08-12 01:45:00,SystemResetWarning,0831.7,5.00,000.00,028.9,026.9,000.0,037.3,030.6,30.2,0000.0,0008.75,0003.71,0003.18
2023-08-12 01:46:00,SystemResetWarning,0831.8,5.01,000.00,029.0,027.2,000.0,037.4,030.7,32.5,0000.0,0008.86,0003.71,0003.17
2023-08-12 01:47:00,SystemResetWarning,0831.7,5.00,000.00,029.0,027.5,000.0,037.4,030.8,33.0,0000.0,0009.10,0003.67,0003.16
2023-08-12 01:48:00,SystemResetWarning,0831.7,5.01,000.00,029.1,027.7,000.0,037.4,030.8,30.9,0000.0,0008.88,0003.64,0003.15
2023-08-12 01:49:00,SystemResetWarning,0831.8,4.99,000.00,029.1,026.9,000.0,037.4,030.7,29.5,0000.0,0007.98,0003.66,0003.16
2023-08-12 01:50:00,SystemResetWarning,0831.7,4.99,000.00,029.0,025.1,000.0,037.2,030.3,29.1,0000.0,0007.56,0003.67,0003.15
2023-08-12 01:51:00,SystemResetWarning,0831.7,5.00,000.00,028.9,024.5,000.0,037.1,030.0,29.7,0000.0,0007.61,0003.69,0003.14
2023-08-12 01:52:00,SystemResetWarning,0831.7,5.01,000.00,028.8,024.6,000.0,037.1,029.9,30.7,0000.0,0007.54,0003.69,0003.14
2023-08-12 01:53:00,SystemResetWarning,0831.6,5.01,000.00,028.7,025.1,000.0,037.2,030.0,31.3,0000.0,0007.55,0003.71,0003.15
2023-08-12 01:54:00,SystemResetWarning,0831.6,5.00,000.00,028.7,025.6,000.0,037.2,030.1,30.8,0000.0,0007.30,0003.67,0003.14
2023-08-12 01:55:00,SystemResetWarning,0831.7,5.00,000.00,028.7,026.0,000.0,037.2,030.3,30.3,0000.0,0007.26,0003.67,0003.14
2023-08-12 01:56:00,SystemResetWarning,0831.7,5.00,000.00,028.7,026.4,000.0,037.2,030.4,30.2,0000.0,0007.46,0003.72,0003.14
2023-08-12 01:57:00,SystemResetWarning,0831.7,4.99,000.00,028.8,026.8,000.0,037.3,030.5,29.8,0000.0,0007.64,0003.70,0003.14
2023-08-12 01:58:00,SystemResetWarning,0831.6,5.00,000.00,028.8,027.1,000.0,037.3,030.6,30.3,0000.0,0007.33,0003.73,0003.14
2023-08-12 01:59:00,SystemResetWarning,0831.6,5.00,000.00,028.9,027.3,000.0,037.3,030.6,29.9,0000.0,0007.39,0003.79,0003.14
